This demonstration page uses our WeatherBlox Daily Observations layout. Learn more.

Left ArrowRight Arrow

Hourly Observations for October 13, 2015

Temp ( °F °C ) Dew Point ( °F °C ) Humidity (%) Winds ( mph kmh ) Pressure ( in mb ) Visibility ( mi km ) Precip ( " mm )
12:51 am 00:51 Clear 67 19.4 52 11.1 59 59 ESE 7 11 29.96 1015 10 16 N/A
1:51 am 01:51 Clear 65 18.3 52 11.1 63 63 ESE 5 7 29.97 1015 10 16 N/A
2:51 am 02:51 Clear 62 16.7 51 10.6 67 67 ESE 3 6 29.97 1015 10 16 N/A
3:51 am 03:51 Clear 60 15.6 51 10.6 72 72 SE 5 7 29.98 1015 10 16 N/A
4:51 am 04:51 Clear 61 16.1 52 11.1 72 72 E 7 11 29.99 1016 10 16 N/A
5:51 am 05:51 Clear 61 16.1 51 10.6 70 70 SSE 5 7 30.01 1016 10 16 N/A
6:51 am 06:51 Sunny 61 16.1 51 10.6 70 70 N N/A 30.04 1017 10 16 N/A
7:51 am 07:51 Sunny 67 19.4 51 10.6 57 57 SE 3 6 30.06 1018 10 16 N/A
8:51 am 08:51 Sunny 70 21.1 52 11.1 53 53 SSE 5 7 30.07 1018 10 16 N/A
9:51 am 09:51 Sunny 76 24.4 52 11.1 43 43 N N/A 30.06 1018 10 16 N/A
10:51 am 10:51 Sunny 82 27.8 51 10.6 34 34 WNW 6 9 30.03 1017 10 16 N/A
11:51 am 11:51 Sunny 87 30.6 50 10 28 28 WNW 12 19 30.00 1016 10 16 N/A
12:51 pm 12:51 Sunny 89 31.7 43 6.1 20 20 WNW 12 19 29.97 1015 10 16 N/A
1:51 pm 13:51 Sunny 91 32.8 41 5 17 17 WNW 12 19 29.93 1014 10 16 N/A
2:51 pm 14:51 Sunny 92 33.3 37 2.8 14 14 WNW 9 15 29.92 1013 10 16 N/A
3:51 pm 15:51 Sunny 92 33.3 34 1.1 13 13 WNW 13 20 29.91 1013 10 16 N/A
4:51 pm 16:51 Sunny 91 32.8 35 1.7 14 14 WNW 13 20 29.90 1013 10 16 N/A
5:51 pm 17:51 Clear 84 28.9 39 3.9 20 20 WNW 7 11 29.91 1013 10 16 N/A
6:51 pm 18:51 Clear 77 25 41 5 28 28 NNW 8 13 29.93 1014 10 16 N/A
7:51 pm 19:51 Clear 79 26.1 43 6.1 28 28 NNW 9 15 29.93 1014 10 16 N/A
8:51 pm 20:51 Clear 77 25 44 6.7 31 31 NW 9 15 29.94 1014 10 16 N/A
9:51 pm 21:51 Clear 73 22.8 44 6.7 35 35 NW 8 13 29.95 1014 10 16 N/A
10:51 pm 22:51 Clear 68 20 48 8.9 49 49 N N/A 29.96 1015 10 16 N/A
11:51 pm 23:51 Clear 64 17.8 47 8.3 54 54 SE 3 6 29.95 1014 10 16 N/A

Powered by AerisWeather